THORAD AGENA D DEB, 4757

Orbit data source: Space-Track

THORAD AGENA D DEB, 4757 is space debris in SSO originally from a launch on Wed, 08 Apr 1970 UTC launched from the Air Force Western Test Range (AFWTR). Debris objects in space refer to the collection of defunct objects orbiting the Earth. Examples of debris include non-operational satellites, rocket bodies, and fragments generated from explosions, collisions, or faulty payload assembly.

Loading next visibility...
Identifier
4757, 1970-025DF
Orbit
SSO
Country
Flag of USUS
Related business
Manufacturer
Unknown
Mission
Spacecraft
Bus & Motor
Unknown
Mass
Unknown
Launch date (UTC)
1970-04-08 (56 years ago)
Launch vehicle
Unknown
Launch site
Air Force Western Test Range (AFWTR)
Object type
Payload
Rocket body
Debris
Shape & HBR
Unknown shape, 0.1 m
Radar Cross Section
Medium (>0.1 m² and <1 m²)

Expand to show TLE details & history
Last TLE update: 22 hours ago

TLE from 22 hours ago
0 THORAD AGENA D DEB
1 04757U 70025DF  26255.56363184  .00000302  00000-0  43110-3 0  9990
2 04757  99.3751 123.9358 0011404 218.6663 141.3665 13.64183062792684
Epoch: 2026-09-12T13:31Z
TLE epoch observation values (Epoch: 2026-09-12T13:31:37.790Z)
Latitude
-0.00002°
Longitude
-70.54249°
Altitude
1,029.941 km
Speed
7.334 km/s
True Right ascension
08h 15m 44s
True Declination
0° 00' 00"
Sunlit
Object was in daylight at epoch
Visualization orbit readout
Latitude
Unknown
Longitude
Unknown
Altitude
Unknown
Speed
Unknown
Apparent Right ascension
Unknown
Apparent Declination
Unknown
Sunlit
N/A
Visualization observer readout
Local Sidereal Time
03:31:43
Azimuth
Unknown
Elevation
Unknown
Doppler factor
Unknown
Orbital elements
Apogee altitude
1,026.229 km
Perigee altitude
1,009.36 km
Semi-major axis
7,395.932 km
Eccentricity
0.00114
Inclination
99.3751°
RAAN
123.9358°
Arg. of periapsis
218.6663°
True anomaly
141.448°
Mean anomaly
141.3665°
Eccentric anomaly
141.40726°
Mean motion
3.41235 °/min
Orbital period
105.5 mins
BSTAR
0.0004311
Loading maneuver chart data...
Computing Atmospheric mass density...

Documentation

Showing up to 5 results
|